Theta_e
316 316 315 315 315 315 315 315 315 314 313 313 312 310 306 302 300 298 298 297 297 297 297 297 297 297 297 297 297 299 298 297 297 299 299 297 299 302 302 304 306 307
314 314 314 314 313 313 314 313 313 312 311 311 308 304 300 298 297 297 296 296 296 296 296 296 296 296 296 296 296 298 297 296 297 300 302 300 300 303 303 304 305 305
313 313 313 313 312 312 312 311 311 310 309 307 302 298 297 296 296 296 296 296 295 295 296 296 296 296 296 296 296 296 296 296 297 301 306 304 301 301 302 303 305 306
312 312 312 311 311 311 311 311 310 308 304 300 297 297 297 296 296 296 295 295 295 295 295 295 296 295 295 295 296 295 295 295 296 300 304 303 300 300 300 302 305 307
311 311 310 310 311 311 310 308 306 302 298 296 297 297 297 298 298 297 297 297 296 296 295 295 295 295 295 295 295 295 295 295 296 298 301 302 302 302 300 300 304 306
310 310 310 310 309 308 305 302 300 298 296 296 297 297 297 298 299 299 298 298 298 297 296 295 295 295 295 295 295 295 295 295 295 297 300 301 302 303 302 301 303 305
309 308 307 306 304 301 298 298 297 297 296 297 297 298 298 298 298 299 299 298 298 296 295 295 295 295 295 295 295 295 295 295 295 296 299 300 301 303 304 303 304 305
307 304 300 299 298 297 297 296 296 296 296 296 296 298 298 298 298 299 300 299 297 295 295 295 294 294 295 295 295 296 297 297 297 297 299 301 302 303 303 303 304 303
302 299 297 297 297 297 296 296 295 296 297 297 297 297 297 298 298 298 299 299 297 295 294 294 294 294 295 294 294 297 299 299 299 300 301 302 303 303 302 303 303 303
298 297 296 296 296 296 296 295 295 296 297 297 297 297 297 297 298 298 298 298 297 295 294 294 294 294 294 294 294 296 299 300 300 301 303 303 303 302 302 302 302 302
296 296 296 296 295 295 295 295 295 296 296 297 297 297 297 296 297 299 299 298 296 295 294 294 294 294 294 294 294 294 298 300 300 301 303 303 302 302 302 302 301 301
295 295 295 295 295 295 294 294 294 294 295 296 297 296 295 295 295 297 298 297 295 294 294 294 294 294 294 294 295 294 296 299 300 301 303 302 302 302 302 301 301 300
295 295 295 294 295 294 294 294 294 294 294 295 296 295 295 295 295 296 296 295 294 293 294 294 294 294 294 294 295 294 295 300 301 302 303 302 301 302 301 301 300 300
295 295 294 294 294 294 294 294 294 294 294 294 294 294 295 296 297 297 297 295 294 293 293 294 293 294 294 294 295 294 295 300 302 302 302 302 301 301 300 300 299 299
295 295 294 294 294 294 294 294 294 294 294 294 294 294 295 296 298 299 299 297 295 294 293 293 293 293 294 293 294 294 295 300 302 301 301 301 301 300 300 299 299 298
296 296 295 295 295 294 294 294 294 294 294 294 293 293 294 295 297 299 299 297 296 294 293 293 293 293 293 293 294 294 295 299 301 301 301 301 300 300 299 299 298 298
298 298 297 296 295 295 294 294 294 294 294 293 294 293 293 294 296 297 297 297 296 293 292 293 293 293 294 293 294 295 295 299 300 300 300 300 299 299 299 298 298 297
300 300 299 298 297 296 295 295 294 294 294 294 294 294 293 294 295 296 298 300 297 293 292 293 293 293 294 293 294 294 296 298 300 300 300 300 299 299 298 298 298 297
300 300 299 299 298 297 296 296 295 295 294 294 294 293 293 293 294 295 298 301 300 295 292 293 293 293 293 293 294 294 296 299 300 300 299 299 299 298 298 298 297 297
300 300 299 299 298 297 297 297 296 295 295 296 295 294 294 294 294 294 296 300 301 298 293 292 293 293 293 293 294 294 296 298 299 299 299 299 299 298 298 297 297 296
300 299 299 299 298 298 297 296 296 297 297 297 296 296 296 295 294 294 294 297 300 300 295 292 292 293 292 293 293 295 296 298 299 299 299 299 298 298 298 297 297 296
299 299 299 299 298 298 297 296 296 298 297 297 297 296 296 296 295 295 294 294 296 299 297 293 291 292 292 292 293 294 296 298 298 298 299 299 298 298 297 297 297 296
299 299 299 299 299 299 297 296 298 298 298 298 298 298 297 297 296 295 294 292 292 295 297 295 292 291 292 292 292 293 294 297 298 298 298 298 298 297 297 297 296 296
300 299 299 299 299 298 297 297 298 298 298 299 299 298 299 299 298 297 296 294 291 291 294 295 293 291 291 292 292 292 293 295 297 296 297 298 298 297 297 297 296 296
300 300 300 299 299 298 297 298 298 298 299 299 299 299 299 298 298 299 297 296 295 292 292 293 292 291 291 291 292 292 292 294 295 295 296 297 298 297 297 297 296 296
300 300 299 299 298 298 298 298 298 299 299 299 299 299 299 298 298 298 298 297 297 296 293 292 292 292 291 291 291 292 292 293 294 293 294 296 298 297 296 296 296 296
Wind_Speed
5 5 5 6 7 7 7 7 6 6 7 6 6 8 10 11 11 11 12 12 12 12 12 13 13 13 13 14 15 15 16 16 16 17 17 18 16 16 16 14 14 13
6 6 6 6 7 7 7 7 7 7 7 7 8 11 12 12 12 12 13 14 13 14 15 15 15 16 16 17 17 17 17 17 17 17 16 17 17 15 15 14 14 14
8 8 8 8 8 9 8 8 8 7 8 10 12 13 14 13 13 13 14 15 16 16 16 16 17 18 18 19 19 19 19 19 18 17 14 14 16 16 15 15 14 14
8 8 8 8 9 9 8 8 8 9 11 14 14 14 14 14 14 14 15 16 17 18 18 18 18 19 20 20 20 20 20 20 20 17 14 14 16 17 16 15 14 14
9 9 9 9 10 9 9 10 11 13 15 15 15 14 14 14 14 14 15 16 17 18 18 18 19 20 20 20 20 21 21 21 20 18 16 15 16 16 16 16 15 14
10 10 10 10 11 12 13 14 14 15 16 15 15 14 14 14 14 13 15 16 16 17 18 19 19 20 20 20 21 21 21 21 20 19 16 15 15 15 16 16 15 14
11 12 12 12 14 15 16 17 16 16 15 15 15 14 13 14 14 14 15 15 16 16 18 19 19 20 20 21 21 21 21 21 21 19 17 16 15 14 15 15 15 14
13 15 16 16 18 18 17 17 17 17 16 15 15 14 13 13 13 14 14 14 15 17 18 18 19 20 20 21 21 20 20 20 21 20 18 16 16 15 14 14 14 14
15 17 18 17 18 17 17 18 17 16 16 15 14 14 14 14 13 13 14 13 15 16 17 18 18 19 20 20 20 19 18 18 19 18 17 15 14 14 15 15 15 15
17 18 18 18 18 17 17 18 17 16 15 14 14 13 13 14 13 14 14 13 14 16 17 17 18 19 19 19 19 19 16 16 17 15 14 14 14 14 15 15 15 16
18 18 18 18 18 17 17 17 17 16 15 14 13 13 13 13 13 14 13 13 14 16 17 17 18 18 19 19 19 19 17 15 16 15 13 13 14 14 14 15 15 16
19 18 18 17 17 16 16 16 16 15 14 14 13 13 13 13 14 14 12 12 14 16 17 17 18 18 18 19 19 18 17 16 16 16 13 13 14 13 14 15 15 16
19 18 17 16 16 16 15 15 15 14 14 14 13 13 14 13 14 14 13 14 15 17 18 18 18 19 19 20 19 18 18 16 15 14 13 14 14 13 14 15 15 16
18 17 16 16 15 16 15 15 15 14 13 13 13 14 14 14 14 14 14 15 16 18 19 19 19 20 20 20 19 18 17 15 14 13 13 13 14 13 14 15 16 16
18 17 17 16 16 15 15 15 15 14 14 14 14 14 15 14 13 12 12 14 17 18 19 19 20 21 21 21 19 18 16 13 13 13 13 13 13 14 14 15 16 16
17 17 17 17 16 16 15 15 15 15 15 15 15 15 15 14 14 13 13 14 17 19 20 20 21 21 21 19 18 17 16 14 12 12 12 12 14 14 14 16 16 17
16 16 16 16 16 16 16 16 16 16 15 15 15 16 16 15 15 15 15 15 17 20 21 21 21 21 20 19 17 16 16 15 12 12 12 12 14 14 15 16 16 17
16 15 15 16 16 16 17 16 16 16 16 16 16 17 17 16 16 15 14 13 15 19 21 21 21 21 20 19 17 16 17 15 12 12 11 12 14 14 15 16 16 17
16 15 16 16 16 16 16 16 16 17 17 17 17 18 17 18 17 16 14 11 11 16 21 21 21 22 22 19 18 17 17 15 11 11 12 12 13 14 15 16 17 18
16 16 16 16 16 16 16 16 17 17 17 16 16 17 17 17 18 17 16 13 9 12 19 22 21 23 23 20 18 18 18 16 12 11 12 13 13 14 15 16 17 18
16 17 17 16 16 16 16 17 17 16 15 15 14 15 15 15 17 17 16 14 9 8 15 21 22 22 23 23 20 18 19 17 13 11 12 13 13 14 15 15 17 18
17 17 17 16 16 16 16 17 17 15 14 14 14 14 15 15 15 16 16 15 13 9 11 19 22 22 23 24 23 20 19 16 14 12 12 13 14 15 15 16 18 20
17 17 16 16 15 15 16 16 16 14 13 12 12 12 12 13 13 14 15 17 17 14 11 14 21 23 22 23 24 23 20 17 14 14 13 13 15 15 15 17 21 23
16 16 16 15 15 15 16 15 15 14 13 12 11 11 10 10 10 10 12 15 18 18 15 13 19 23 23 23 23 23 22 19 16 15 14 13 15 16 15 17 20 23
16 16 15 15 15 15 15 14 13 12 11 10 9 9 9 8 8 8 9 11 14 18 19 17 19 22 23 23 23 23 23 20 17 17 16 13 14 16 16 16 18 21
16 16 15 15 15 16 14 13 13 12 11 9 8 8 8 7 7 7 8 9 10 12 16 19 20 22 23 23 23 23 23 22 19 19 18 13 13 16 17 17 18 20
Wind_Direction
95 98 101 117 123 112 106 109 112 111 101 85 79 84 87 87 84 80 75 68 65 63 61 61 58 56 56 52 52 49 41 38 40 38 33 29 27 19 13 10 4 1
97 97 95 107 114 110 109 106 101 99 95 93 97 98 95 89 83 80 80 75 70 66 63 62 61 58 57 55 54 52 45 40 44 42 32 28 29 24 18 15 10 9
95 97 99 104 109 110 109 102 96 93 96 104 108 102 96 91 85 81 81 78 72 68 64 62 62 60 59 57 55 53 48 43 44 42 28 21 25 25 23 19 13 10
97 95 96 99 102 104 100 98 102 106 109 110 107 101 96 92 86 81 79 77 72 68 65 62 61 61 59 57 54 52 50 45 45 43 31 23 24 23 22 20 15 9
98 96 97 99 99 100 102 105 111 116 114 109 104 101 98 92 85 80 76 72 69 66 63 60 59 59 57 56 54 51 49 45 43 41 33 27 23 18 17 20 17 11
100 98 98 101 106 114 117 114 113 114 112 107 103 99 96 93 87 81 75 69 65 62 60 58 56 56 55 53 52 49 47 45 43 39 32 26 23 15 13 16 16 10
105 106 106 108 114 120 120 118 117 115 111 108 105 98 93 92 88 82 75 69 65 61 59 57 55 54 53 50 49 47 43 41 40 38 33 27 23 17 10 10 11 8
113 119 120 120 120 120 119 118 118 114 109 107 104 102 97 90 84 81 74 67 63 61 59 56 53 52 50 48 47 43 37 33 32 32 28 23 20 15 10 9 8 7
121 123 126 125 124 123 122 121 119 113 110 106 101 98 95 89 84 80 76 68 61 58 56 54 51 49 47 45 44 40 33 27 26 25 20 18 17 12 10 11 8 7
127 127 128 128 126 126 124 122 119 114 111 107 100 94 89 88 84 77 72 67 60 57 54 51 48 46 44 42 41 40 35 26 22 21 16 14 14 10 10 11 7 6
132 131 130 129 129 128 125 123 120 115 110 103 99 95 88 85 83 77 69 62 58 55 51 48 46 43 40 38 37 38 38 31 22 22 18 12 14 12 9 9 7 6
133 132 130 129 128 126 124 123 119 115 111 105 99 95 89 82 79 78 71 60 54 50 47 44 42 40 36 35 32 32 38 35 24 22 18 11 16 14 8 8 7 5
135 134 132 129 128 126 124 123 119 115 111 108 103 96 88 79 74 71 65 58 52 47 43 38 37 37 33 32 29 26 34 34 19 16 16 11 14 13 7 8 6 4
136 133 131 129 128 127 125 123 119 115 109 106 101 94 87 79 73 67 59 54 49 44 41 35 33 32 29 30 28 23 32 35 16 12 17 11 10 11 8 6 4 2
135 132 130 128 127 126 125 123 118 114 109 104 97 91 85 81 78 73 63 55 47 42 39 34 32 31 26 25 24 21 29 35 17 10 16 10 6 10 6 2 2 360
131 130 128 127 126 125 123 121 117 112 107 101 96 91 86 83 83 80 71 59 49 42 39 35 32 31 27 24 24 23 29 38 22 9 13 10 6 9 5 359 359 357
126 125 125 125 124 123 121 119 116 111 105 101 97 91 87 84 82 79 73 62 50 43 40 37 33 32 30 28 31 32 38 46 32 10 11 11 7 8 3 358 356 355
125 124 124 122 121 121 120 117 113 109 106 102 95 89 85 83 81 79 75 65 49 42 41 38 34 34 32 31 36 38 45 53 37 10 12 10 6 7 3 357 356 357
127 126 124 123 122 121 119 116 113 110 105 99 93 88 83 79 79 78 77 74 55 41 40 39 36 36 35 33 37 40 47 54 36 12 14 11 5 6 3 359 358 359
129 128 126 124 123 121 119 117 113 107 101 95 90 86 81 76 75 74 74 77 68 41 37 38 37 36 35 35 38 42 46 46 29 12 13 11 6 6 5 1 359 359
131 130 128 126 124 122 121 117 112 106 102 98 92 87 82 77 72 69 69 72 75 51 34 35 36 35 35 36 37 42 47 39 22 13 12 8 6 7 5 1 356 356
134 132 129 126 124 122 121 117 111 106 102 99 94 88 83 79 73 69 65 64 68 63 36 31 34 34 33 35 34 38 45 38 17 12 14 7 5 6 5 358 349 351
136 135 131 128 125 124 122 118 112 109 104 99 96 91 84 78 72 68 63 58 58 60 48 30 31 32 30 32 32 31 39 38 19 10 13 8 4 4 4 357 346 346
138 137 132 130 129 126 122 118 114 111 107 102 97 93 88 81 75 66 60 54 49 51 51 36 29 29 26 27 28 26 31 35 22 10 11 9 4 1 1 357 347 345
139 137 135 134 133 128 123 119 116 113 107 102 96 92 90 87 84 74 61 55 45 42 45 40 31 27 24 23 23 22 26 30 23 14 10 5 1 357 356 354 349 346
142 139 138 138 134 128 123 119 118 114 109 108 104 100 101 95 86 77 62 55 45 33 35 36 30 25 21 21 20 18 20 25 22 15 12 8 2 355 352 350 348 346